TimeCST,TemperatureF,Dew PointF,Humidity,Sea Level PressureIn,VisibilityMPH,Wind Direction,Wind SpeedMPH,Gust SpeedMPH,PrecipitationIn,Events,Conditions,WindDirDegrees,DateUTC
12:52 AM,34.0,27.0,75,30.04,10.0,WNW,25.3,36.8,N/A,,Clear,290,2012-11-23 06:52:00
1:52 AM,32.0,25.0,75,30.06,10.0,WNW,21.9,33.4,N/A,,Clear,290,2012-11-23 07:52:00
2:52 AM,30.9,23.0,72,30.08,10.0,WNW,26.5,33.4,N/A,,Overcast,300,2012-11-23 08:52:00
3:52 AM,30.9,23.0,72,30.09,10.0,WNW,23.0,35.7,N/A,,Overcast,300,2012-11-23 09:52:00
4:07 AM,30.2,21.2,69,30.07,10.0,WNW,31.1,43.7,N/A,,Overcast,300,2012-11-23 10:07:00
4:29 AM,28.4,21.2,74,30.07,10.0,WNW,31.1,43.7,N/A,,Overcast,300,2012-11-23 10:29:00
4:52 AM,28.0,17.1,63,30.11,10.0,NW,39.1,52.9,N/A,,Overcast,310,2012-11-23 10:52:00
5:52 AM,25.0,17.1,72,30.15,10.0,NW,27.6,40.3,N/A,,Mostly Cloudy,310,2012-11-23 11:52:00
6:52 AM,23.0,16.0,74,30.17,10.0,WNW,26.5,41.4,N/A,,Partly Cloudy,300,2012-11-23 12:52:00
7:52 AM,21.9,15.1,75,30.20,10.0,NW,27.6,40.3,N/A,,Clear,310,2012-11-23 13:52:00
8:52 AM,21.9,14.0,72,30.22,10.0,NW,32.2,40.3,N/A,,Partly Cloudy,310,2012-11-23 14:52:00
9:25 AM,23.0,15.8,74,30.21,10.0,NW,25.3,36.8,N/A,,Mostly Cloudy,310,2012-11-23 15:25:00
9:52 AM,23.0,12.9,65,30.27,10.0,NW,31.1,40.3,N/A,,Mostly Cloudy,320,2012-11-23 15:52:00
10:52 AM,26.1,15.1,63,30.28,10.0,WNW,27.6,35.7,N/A,,Overcast,300,2012-11-23 16:52:00
11:52 AM,24.1,14.0,65,30.29,10.0,NW,23.0,34.5,N/A,,Mostly Cloudy,310,2012-11-23 17:52:00
12:11 PM,24.8,12.2,59,30.25,10.0,NW,31.1,40.3,N/A,,Scattered Clouds,320,2012-11-23 18:11:00
12:52 PM,26.1,12.9,58,30.30,10.0,NW,26.5,34.5,N/A,,Partly Cloudy,310,2012-11-23 18:52:00
1:52 PM,27.0,14.0,58,30.30,10.0,NW,24.2,31.1,N/A,,Clear,320,2012-11-23 19:52:00
2:52 PM,26.1,14.0,60,30.31,10.0,NW,24.2,31.1,N/A,,Clear,310,2012-11-23 20:52:00
3:52 PM,26.1,15.1,63,30.33,10.0,NW,24.2,31.1,N/A,,Clear,310,2012-11-23 21:52:00
4:52 PM,24.1,15.1,69,30.33,10.0,NW,17.3,-,N/A,,Clear,310,2012-11-23 22:52:00
5:52 PM,23.0,15.1,72,30.34,10.0,NW,15.0,-,N/A,,Clear,310,2012-11-23 23:52:00
6:52 PM,21.9,15.1,75,30.35,10.0,NW,12.7,-,N/A,,Clear,320,2012-11-24 00:52:00
7:52 PM,19.9,15.1,81,30.36,10.0,NW,11.5,-,N/A,,Clear,310,2012-11-24 01:52:00
8:52 PM,19.0,15.1,85,30.35,10.0,NW,12.7,-,N/A,,Clear,310,2012-11-24 02:52:00
9:52 PM,18.0,14.0,84,30.35,10.0,NW,12.7,-,N/A,,Clear,310,2012-11-24 03:52:00
10:52 PM,16.0,14.0,92,30.35,10.0,WNW,10.4,-,N/A,,Clear,300,2012-11-24 04:52:00
11:52 PM,15.1,14.0,95,30.35,10.0,WNW,9.2,-,N/A,,Clear,290,2012-11-24 05:52:00